CW6353 Weather Reports


Display with metric or nautical units.
time (UTC)temp
F
wind
direction
speed
MPH
gust
MPH
rain 1hr
in
rain 24hr
in
rain mn
in
humidity
%
barometer
mb
20260902092502 72 255 0.0 0.0 0.00 0.00 0.00 87 1018.2
20260902092004 72 212 0.0 0.0 0.00 0.00 0.00 87 1018.2
20260902091503 72 212 0.0 2.0 0.00 0.00 0.00 87 1018.3
20260902091002 72 212 0.0 2.0 0.00 0.00 0.00 87 1018.1
20260902090503 72 212 0.0 2.0 0.00 0.00 0.00 87 1018.0
20260902090003 72 212 0.0 1.0 0.00 0.00 0.00 87 1017.9
20260902085502 72 212 0.0 1.0 0.00 0.00 0.00 87 1017.9
20260902085008 72 212 0.0 2.0 0.00 0.00 0.00 87 1017.9
20260902084504 72 212 0.0 2.0 0.00 0.00 0.00 86 1018.0
20260902084008 72 212 0.0 0.0 0.00 0.00 0.00 86 1018.0
20260902083504 72 212 0.0 0.0 0.00 0.00 0.00 86 1017.9
20260902083004 72 212 0.0 1.0 0.00 0.00 0.00 86 1017.8
20260902082502 72 212 0.0 2.0 0.00 0.00 0.00 86 1017.8
20260902082002 72 212 0.0 2.0 0.00 0.00 0.00 86 1017.7
20260902081513 72 212 0.0 2.0 0.00 0.00 0.00 86 1017.7
20260902081003 72 178 1.0 2.0 0.00 0.00 0.00 86 1017.8
20260902080503 72 207 0.0 2.0 0.00 0.00 0.00 86 1017.9
20260902080006 72 205 0.0 2.0 0.00 0.00 0.00 86 1017.8
20260902075504 72 182 0.0 2.0 0.00 0.00 0.00 86 1017.8
20260902075003 72 186 1.0 3.0 0.00 0.00 0.00 86 1017.7
20260902074508 72 174 0.0 3.0 0.00 0.00 0.00 86 1017.6
20260902074005 72 213 1.0 2.0 0.00 0.00 0.00 86 1017.6
20260902073507 72 187 0.0 2.0 0.00 0.00 0.00 85 1017.7
20260902073006 72 204 0.0 2.0 0.00 0.00 0.00 85 1017.8
20260902072504 72 196 0.0 2.0 0.00 0.00 0.00 85 1017.9
20260902072008 72 225 0.0 3.0 0.00 0.00 0.00 85 1017.8
20260902071510 72 219 0.0 3.0 0.00 0.00 0.00 85 1017.8
20260902071003 72 214 0.0 2.0 0.00 0.00 0.00 85 1017.7
20260902070507 73 214 0.0 2.0 0.00 0.00 0.00 85 1017.7
20260902070008 73 195 0.0 2.0 0.00 0.00 0.00 85 1017.8
20260902065503 73 196 0.0 2.0 0.00 0.00 0.00 85 1017.9
20260902065003 72 196 0.0 2.0 0.00 0.00 0.00 85 1018.0
20260902064505 72 203 0.0 2.0 0.00 0.00 0.00 85 1018.1
20260902064004 73 203 0.0 2.0 0.00 0.00 0.00 85 1018.0
20260902063504 73 203 0.0 2.0 0.00 0.00 0.00 85 1018.0
20260902063007 73 217 0.0 2.0 0.00 0.00 0.00 85 1017.8
20260902062508 73 175 0.0 2.0 0.00 0.00 0.00 84 1017.9
20260902062004 73 175 0.0 2.0 0.00 0.00 0.00 84 1017.9
20260902061515 73 175 0.0 3.0 0.00 0.00 0.00 84 1017.9
20260902061009 73 180 1.0 3.0 0.00 0.00 0.00 84 1018.1
20260902060503 73 161 1.0 2.0 0.00 0.00 0.00 85 1018.1
20260902060021 73 161 0.0 1.0 0.00 0.00 0.00 85 1018.1
20260902055507 73 161 0.0 2.0 0.00 0.00 0.00 84 1018.0
20260902055003 73 161 0.0 2.0 0.00 0.00 0.00 84 1018.1
20260902054510 73 161 0.0 0.0 0.00 0.00 0.00 84 1018.1
20260902054003 74 161 0.0 0.0 0.00 0.00 0.00 83 1018.2
20260902053504 74 161 0.0 0.0 0.00 0.00 0.00 83 1018.2
20260902053010 74 161 0.0 0.0 0.00 0.00 0.00 83 1018.2
20260902052505 74 161 0.0 0.0 0.00 0.00 0.00 83 1018.1
20260902052009 74 161 0.0 0.0 0.00 0.00 0.00 82 1018.0
20260902051511 74 161 0.0 2.0 0.00 0.00 0.00 82 1018.0
20260902051004 74 161 0.0 2.0 0.00 0.00 0.00 82 1018.0
20260902050509 74 161 0.0 2.0 0.00 0.00 0.00 82 1018.0
20260902050010 74 186 0.0 2.0 0.00 0.00 0.00 82 1018.0
20260902045511 74 149 1.0 4.0 0.00 0.00 0.00 82 1018.1
20260902045007 74 140 2.0 4.0 0.00 0.00 0.00 82 1018.2
20260902044504 74 113 1.0 2.0 0.00 0.00 0.00 82 1018.0
20260902044012 74 126 0.0 2.0 0.00 0.00 0.00 82 1018.0
20260902043503 74 140 1.0 3.0 0.00 0.00 0.00 81 1017.9
20260902043006 75 123 2.0 3.0 0.00 0.00 0.00 81 1018.0
20260902042504 75 102 1.0 2.0 0.00 0.00 0.00 81 1018.1
20260902042006 75 115 1.0 2.0 0.00 0.00 0.00 80 1018.1
20260902041510 75 117 1.0 2.0 0.00 0.00 0.00 80 1018.2
20260902041006 75 117 1.0 2.0 0.00 0.00 0.00 80 1018.2
20260902040507 75 111 1.0 2.0 0.00 0.00 0.00 80 1018.3
20260902040014 75 114 1.0 2.0 0.00 0.00 0.00 79 1018.1
20260902035506 76 112 1.0 2.0 0.00 0.00 0.00 79 1018.1
20260902035011 76 129 1.0 2.0 0.00 0.00 0.00 78 1018.2
20260902034523 76 123 0.0 2.0 0.00 0.00 0.00 78 1018.3
20260902034005 76 97 1.0 2.0 0.00 0.00 0.00 78 1018.3
20260902033513 76 107 1.0 2.0 0.00 0.00 0.00 77 1018.3
20260902033025 77 107 1.0 2.0 0.00 0.00 0.00 77 1018.2
20260902032504 77 107 0.0 3.0 0.00 0.00 0.00 77 1018.2
20260902032004 77 107 1.0 4.0 0.00 0.00 0.00 76 1018.2
20260902031507 77 94 2.0 4.0 0.00 0.00 0.00 76 1018.2
20260902031005 77 84 2.0 5.0 0.00 0.00 0.00 76 1018.2
20260902030506 77 74 3.0 5.0 0.00 0.00 0.00 76 1018.3
20260902030010 77 98 2.0 5.0 0.00 0.00 0.00 76 1018.3
20260902025508 77 69 3.0 6.0 0.00 0.00 0.00 76 1018.4
20260902025009 77 82 2.0 6.0 0.00 0.00 0.00 75 1018.4
20260902024509 77 74 3.0 4.0 0.00 0.00 0.00 75 1018.4
20260902024012 78 65 2.0 5.0 0.00 0.00 0.00 75 1018.5
20260902023508 78 70 3.0 5.0 0.00 0.00 0.00 74 1018.5
20260902023025 78 84 3.0 5.0 0.00 0.00 0.00 74 1018.4
20260902022514 78 78 3.0 5.0 0.00 0.00 0.00 74 1018.4
20260902022003 78 83 3.0 5.0 0.00 0.00 0.00 74 1018.3
20260902021534 78 66 3.0 4.0 0.00 0.00 0.00 74 1018.3
20260902021008 79 96 3.0 4.0 0.00 0.00 0.00 73 1018.2
20260902020505 79 82 3.0 5.0 0.00 0.00 0.00 72 1018.2
20260902020006 79 91 3.0 5.0 0.00 0.00 0.00 72 1018.2
20260902015507 79 81 3.0 4.0 0.00 0.00 0.00 71 1018.1
20260902015009 80 102 3.0 4.0 0.00 0.00 0.00 70 1017.9
20260902014523 80 89 2.0 4.0 0.00 0.00 0.00 70 1017.8
20260902014010 80 105 3.0 4.0 0.00 0.00 0.00 70 1017.8
20260902013510 80 79 3.0 5.0 0.00 0.00 0.00 69 1017.6
20260902013018 80 81 3.0 5.0 0.00 0.00 0.00 68 1017.5
20260902012505 80 82 3.0 4.0 0.00 0.00 0.00 69 1017.5
20260902012013 80 76 3.0 6.0 0.00 0.00 0.00 68 1017.4
20260902011523 80 100 3.0 7.0 0.00 0.00 0.00 69 1017.3
20260902011015 80 84 4.0 7.0 0.00 0.00 0.00 69 1017.4
20260902010513 81 86 3.0 6.0 0.00 0.00 0.00 69 1017.3
20260902010009 81 76 3.0 6.0 0.00 0.00 0.00 70 1017.3
20260902005516 81 84 3.0 6.0 0.00 0.00 0.00 69 1017.4
20260902005005 81 82 3.0 6.0 0.00 0.00 0.00 68 1017.5
20260902004508 82 78 4.0 5.0 0.00 0.00 0.00 67 1017.4
20260902004008 83 69 3.0 5.0 0.00 0.00 0.00 66 1017.4
20260902003509 83 70 2.0 4.0 0.00 0.00 0.00 65 1017.3
20260902003024 84 64 2.0 3.0 0.00 0.00 0.00 63 1017.3
20260902002508 84 64 2.0 6.0 0.00 0.00 0.00 62 1017.2
20260902002010 85 84 3.0 6.0 0.00 0.00 0.00 60 1017.1
20260902001524 86 92 3.0 5.0 0.00 0.00 0.00 60 1017.0
20260902001012 86 82 3.0 5.0 0.00 0.00 0.00 59 1017.2
20260902000514 87 66 3.0 5.0 0.00 0.00 0.00 57 1017.2
20260902000044 88 85 3.0 5.0 0.00 0.00 0.00 55 1017.2
20260901235511 88 360 3.0 4.0 0.00 0.00 0.00 55 1017.2
20260901235006 88 94 2.0 4.0 0.00 0.00 0.00 53 1017.2
20260901234506 89 100 3.0 7.0 0.00 0.00 0.00 54 1017.2
20260901234001 89 90 3.0 8.0 0.00 0.00 0.00 52 1017.2
20260901233502 90 84 4.0 8.0 0.00 0.00 0.00 50 1017.1
20260901233002 90 76 3.0 6.0 0.00 0.00 0.00 50 1017.2
20260901232502 91 55 3.0 9.0 0.00 0.00 0.00 49 1017.2
20260901232002 91 57 3.0 9.0 0.00 0.00 0.00 49 1017.2
20260901231507 92 78 4.0 9.0 0.00 0.00 0.00 49 1017.2
20260901231003 92 63 4.0 9.0 0.00 0.00 0.00 48 1017.2
20260901230503 92 79 6.0 9.0 0.00 0.00 0.00 47 1017.3
20260901230003 93 22 3.0 6.0 0.00 0.00 0.00 47 1017.3
20260901225503 93 46 4.0 9.0 0.00 0.00 0.00 47 1017.3
20260901225002 93 42 5.0 9.0 0.00 0.00 0.00 47 1017.3
20260901224506 93 100 4.0 11.0 0.00 0.00 0.00 47 1017.3
20260901224004 93 59 5.0 11.0 0.00 0.00 0.00 46 1017.3
20260901223502 93 84 8.0 11.0 0.00 0.00 0.00 46 1017.3
20260901223002 93 83 4.0 12.0 0.00 0.00 0.00 46 1017.2
20260901222503 93 74 4.0 12.0 0.00 0.00 0.00 45 1017.2
20260901222002 94 76 8.0 12.0 0.00 0.00 0.00 43 1017.1
20260901221509 94 132 5.0 9.0 0.00 0.00 0.00 42 1017.0
20260901221003 95 107 3.0 8.0 0.00 0.00 0.00 42 1016.9
20260901220501 95 84 2.0 9.0 0.00 0.00 0.00 43 1016.8
20260901220006 94 42 2.0 9.0 0.00 0.00 0.00 42 1016.9
20260901215503 94 72 4.0 10.0 0.00 0.00 0.00 42 1017.0
20260901215008 94 95 4.0 10.0 0.00 0.00 0.00 40 1017.0
20260901214508 94 73 3.0 10.0 0.00 0.00 0.00 42 1017.1
20260901214006 95 89 5.0 9.0 0.00 0.00 0.00 41 1017.1
20260901213505 95 26 5.0 12.0 0.00 0.00 0.00 41 1017.2
20260901213004 95 117 6.0 12.0 0.00 0.00 0.00 41 1017.1
20260901212502 95 96 6.0 12.0 0.00 0.00 0.00 41 1017.0
20260901212005 95 134 2.0 11.0 0.00 0.00 0.00 37 1017.0
20260901211509 95 127 5.0 10.0 0.00 0.00 0.00 36 1017.1
20260901211001 95 111 3.0 8.0 0.00 0.00 0.00 35 1017.1
20260901210504 95 108 4.0 11.0 0.00 0.00 0.00 36 1017.3
20260901210003 95 59 2.0 12.0 0.00 0.00 0.00 37 1017.2
20260901205503 95 59 5.0 12.0 0.00 0.00 0.00 37 1017.3
20260901205003 95 96 4.0 9.0 0.00 0.00 0.00 35 1017.3
20260901204504 95 91 4.0 9.0 0.00 0.00 0.00 37 1017.3
20260901204003 95 155 3.0 10.0 0.00 0.00 0.00 38 1017.4
20260901203503 95 134 3.0 13.0 0.00 0.00 0.00 38 1017.5
20260901203016 95 150 8.0 13.0 0.00 0.00 0.00 37 1017.6
20260901202504 95 113 6.0 11.0 0.00 0.00 0.00 37 1017.6
20260901202002 95 85 6.0 11.0 0.00 0.00 0.00 38 1017.7
20260901201510 95 85 4.0 9.0 0.00 0.00 0.00 38 1017.8
20260901201003 95 122 3.0 9.0 0.00 0.00 0.00 40 1017.7
20260901200513 94 62 3.0 11.0 0.00 0.00 0.00 40 1017.7
20260901200007 94 116 4.0 12.0 0.00 0.00 0.00 40 1017.9
20260901195503 95 136 7.0 12.0 0.00 0.00 0.00 39 1017.9
20260901195002 95 109 5.0 11.0 0.00 0.00 0.00 41 1018.0
20260901194504 94 320 1.0 3.0 0.00 0.00 0.00 41 1018.0
20260901194002 93 160 1.0 7.0 0.00 0.00 0.00 42 1018.1
20260901193503 93 96 3.0 9.0 0.00 0.00 0.00 42 1018.1
20260901193004 94 55 6.0 13.0 0.00 0.00 0.00 41 1018.2
20260901192504 94 104 7.0 13.0 0.00 0.00 0.00 42 1018.2
20260901192003 94 48 6.0 11.0 0.00 0.00 0.00 42 1018.2
20260901191507 94 30 4.0 10.0 0.00 0.00 0.00 44 1018.3
20260901191014 93 86 4.0 10.0 0.00 0.00 0.00 43 1018.4
20260901190507 93 71 5.0 11.0 0.00 0.00 0.00 44 1018.5
20260901190007 94 76 7.0 16.0 0.00 0.00 0.00 43 1018.6
20260901185508 95 37 8.0 16.0 0.00 0.00 0.00 42 1018.5
20260901185002 95 115 3.0 9.0 0.00 0.00 0.00 41 1018.6
20260901184504 95 125 5.0 9.0 0.00 0.00 0.00 41 1018.8
20260901184003 94 115 4.0 10.0 0.00 0.00 0.00 42 1018.9
20260901183504 94 122 3.0 10.0 0.00 0.00 0.00 45 1018.9
20260901183018 94 153 2.0 10.0 0.00 0.00 0.00 45 1019.0
20260901182503 93 90 5.0 10.0 0.00 0.00 0.00 44 1018.9
20260901182003 93 67 6.0 10.0 0.00 0.00 0.00 45 1019.0
20260901181506 93 121 5.0 10.0 0.00 0.00 0.00 48 1019.0
20260901181003 93 135 5.0 10.0 0.00 0.00 0.00 46 1019.0
20260901180504 92 26 3.0 8.0 0.00 0.00 0.00 47 1019.1
20260901180012 92 125 5.0 8.0 0.00 0.00 0.00 45 1019.1
20260901175505 92 82 4.0 8.0 0.00 0.00 0.00 46 1019.2
20260901175008 93 132 3.0 8.0 0.00 0.00 0.00 45 1019.3
20260901174508 92 141 1.0 8.0 0.00 0.00 0.00 51 1019.3
20260901174004 92 98 4.0 9.0 0.00 0.00 0.00 46 1019.4
20260901173507 92 194 5.0 9.0 0.00 0.00 0.00 46 1019.5
20260901173006 92 176 5.0 8.0 0.00 0.00 0.00 47 1019.6
20260901172506 92 240 5.0 10.0 0.00 0.00 0.00 46 1019.7
20260901172003 92 32 7.0 10.0 0.00 0.00 0.00 49 1019.8
20260901171504 92 213 2.0 9.0 0.00 0.00 0.00 49 1019.8
20260901171003 92 148 5.0 9.0 0.00 0.00 0.00 50 1019.9
20260901170505 92 48 3.0 8.0 0.00 0.00 0.00 48 1019.9
20260901170003 92 82 3.0 5.0 0.00 0.00 0.00 51 1019.9
20260901165508 92 317 2.0 5.0 0.00 0.00 0.00 50 1019.9
20260901165003 91 51 2.0 4.0 0.00 0.00 0.00 51 1019.9
20260901164514 91 284 2.0 8.0 0.00 0.00 0.00 52 1019.9
20260901164008 91 107 5.0 8.0 0.00 0.00 0.00 51 1020.0
20260901163504 91 208 4.0 7.0 0.00 0.00 0.00 50 1020.1
20260901163021 91 324 0.0 5.0 0.00 0.00 0.00 53 1020.1
20260901162509 91 324 2.0 9.0 0.00 0.00 0.00 52 1020.2
20260901162004 90 88 5.0 9.0 0.00 0.00 0.00 53 1020.3
20260901161516 90 53 5.0 9.0 0.00 0.00 0.00 54 1020.3
20260901161004 90 62 6.0 8.0 0.00 0.00 0.00 56 1020.3
20260901160504 90 29 3.0 5.0 0.00 0.00 0.00 57 1020.3
20260901160007 90 44 1.0 4.0 0.00 0.00 0.00 55 1020.3
20260901155504 90 58 2.0 9.0 0.00 0.00 0.00 54 1020.4
20260901155007 90 97 3.0 9.0 0.00 0.00 0.00 56 1020.4
20260901154512 90 83 3.0 9.0 0.00 0.00 0.00 59 1020.5
20260901154006 90 14 3.0 7.0 0.00 0.00 0.00 56 1020.4
20260901153507 89 130 3.0 7.0 0.00 0.00 0.00 59 1020.5
20260901153020 89 57 3.0 6.0 0.00 0.00 0.00 59 1020.6
20260901152512 89 75 2.0 5.0 0.00 0.00 0.00 56 1020.6
20260901152007 89 78 2.0 5.0 0.00 0.00 0.00 60 1020.6
20260901151508 89 36 2.0 5.0 0.00 0.00 0.00 60 1020.6
20260901151013 88 224 1.0 5.0 0.00 0.00 0.00 60 1020.6
20260901150509 88 133 2.0 5.0 0.00 0.00 0.00 63 1020.6
20260901150029 88 23 2.0 5.0 0.00 0.00 0.00 63 1020.6
20260901145503 88 151 1.0 4.0 0.00 0.00 0.00 63 1020.6
20260901145007 88 45 2.0 4.0 0.00 0.00 0.00 64 1020.7
20260901144509 87 80 1.0 3.0 0.00 0.00 0.00 64 1020.7
20260901144010 87 124 2.0 3.0 0.00 0.00 0.00 64 1020.7
20260901143504 86 49 1.0 3.0 0.00 0.00 0.00 67 1020.7
20260901143002 86 246 1.0 3.0 0.00 0.00 0.00 67 1020.6
20260901142506 86 44 1.0 3.0 0.00 0.00 0.00 66 1020.6
20260901142002 86 74 0.0 3.0 0.00 0.00 0.00 68 1020.6
20260901141503 86 59 2.0 3.0 0.00 0.00 0.00 68 1020.7
20260901141001 86 96 2.0 3.0 0.00 0.00 0.00 69 1020.7
20260901140502 86 113 1.0 3.0 0.00 0.00 0.00 69 1020.7
20260901140004 85 75 2.0 3.0 0.00 0.00 0.00 71 1020.6
20260901135503 85 67 1.0 3.0 0.00 0.00 0.00 71 1020.5
20260901135003 84 67 2.0 3.0 0.00 0.00 0.00 71 1020.5
20260901134503 84 75 2.0 3.0 0.00 0.00 0.00 73 1020.4
20260901134002 84 51 1.0 3.0 0.00 0.00 0.00 75 1020.5
20260901133502 83 80 2.0 3.0 0.00 0.00 0.00 74 1020.5
20260901133006 83 65 2.0 3.0 0.00 0.00 0.00 74 1020.5
20260901132502 82 90 2.0 3.0 0.00 0.00 0.00 75 1020.6
20260901132002 82 67 2.0 3.0 0.00 0.00 0.00 76 1020.6
20260901131507 81 67 1.0 2.0 0.00 0.00 0.00 78 1020.5
20260901131003 81 97 0.0 2.0 0.00 0.00 0.00 78 1020.6
20260901130502 80 97 1.0 2.0 0.00 0.00 0.00 79 1020.6
20260901130003 79 101 1.0 2.0 0.00 0.00 0.00 81 1020.5
20260901125502 78 101 0.0 1.0 0.00 0.00 0.00 83 1020.5
20260901125003 77 342 0.0 3.0 0.00 0.00 0.00 85 1020.5
20260901124505 76 101 2.0 3.0 0.00 0.00 0.00 86 1020.4
20260901124002 76 105 1.0 3.0 0.00 0.00 0.00 88 1020.4
20260901123502 75 127 1.0 3.0 0.00 0.00 0.00 89 1020.3
20260901123008 74 112 2.0 3.0 0.00 0.00 0.00 90 1020.3
20260901122502 73 123 1.0 3.0 0.00 0.00 0.00 91 1020.3
20260901122003 72 119 2.0 3.0 0.00 0.00 0.00 93 1020.2
20260901121503 72 66 1.0 4.0 0.00 0.00 0.00 93 1020.1
20260901121003 71 74 2.0 4.0 0.00 0.00 0.00 93 1020.1
20260901120504 71 74 2.0 2.0 0.00 0.00 0.00 92 1020.1
20260901120005 70 74 2.0 2.0 0.00 0.00 0.00 92 1020.1
20260901115502 70 74 0.0 1.0 0.00 0.00 0.00 92 1020.0
20260901115004 70 74 0.0 1.0 0.00 0.00 0.00 92 1019.8
20260901114503 70 74 0.0 2.0 0.00 0.00 0.00 92 1019.7
20260901114003 70 74 1.0 2.0 0.00 0.00 0.00 92 1019.5
20260901113505 70 74 1.0 2.0 0.00 0.00 0.00 92 1019.5
20260901113004 70 74 1.0 3.0 0.00 0.00 0.00 91 1019.4
20260901112503 70 74 2.0 3.0 0.00 0.00 0.00 91 1019.3
20260901112003 70 79 2.0 3.0 0.00 0.00 0.00 91 1019.3
20260901111505 70 121 2.0 2.0 0.00 0.00 0.00 91 1019.3
20260901111004 70 121 1.0 2.0 0.00 0.00 0.00 91 1019.3
20260901110503 70 121 0.0 2.0 0.00 0.00 0.00 91 1019.3
20260901110007 70 138 0.0 1.0 0.00 0.00 0.00 91 1019.3
20260901105503 70 138 0.0 1.0 0.00 0.00 0.00 91 1019.2
20260901105005 70 138 0.0 2.0 0.00 0.00 0.00 91 1019.1
20260901104503 70 138 0.0 2.0 0.00 0.00 0.00 91 1019.0
20260901104003 70 138 0.0 2.0 0.00 0.00 0.00 91 1018.9
20260901103503 70 138 0.0 0.0 0.00 0.00 0.00 91 1018.9
20260901103003 70 138 0.0 0.0 0.00 0.00 0.00 90 1018.9
20260901102505 70 138 0.0 0.0 0.00 0.00 0.00 91 1018.9
20260901102003 71 138 0.0 0.0 0.00 0.00 0.00 91 1018.9
20260901101509 71 138 0.0 2.0 0.00 0.00 0.00 91 1018.9
20260901101004 71 138 0.0 2.0 0.00 0.00 0.00 91 1018.9
20260901100504 71 138 0.0 1.0 0.00 0.00 0.00 91 1018.9
20260901100006 71 138 0.0 1.0 0.00 0.00 0.00 91 1018.8
20260901095503 71 138 0.0 1.0 0.00 0.00 0.00 91 1018.8
20260901095004 71 138 0.0 2.0 0.00 0.00 0.00 91 1018.8
20260901094507 71 138 0.0 2.0 0.00 0.00 0.00 90 1018.8
20260901094004 71 138 0.0 2.0 0.00 0.00 0.00 90 1018.7
20260901093503 71 138 0.0 2.0 0.00 0.00 0.00 90 1018.7
20260901093003 71 138 1.0 2.0 0.00 0.00 0.00 90 1018.8